Lid_Strength_Index
12 12 12 12 12 11 11 11 10 10 9 9 8 8 9 9 8 8 8 9 9 9 9 9 10 9 8 8 7 7 6 7 8 7 6 6 7 7 7 7 7 7 7
14 14 14 13 13 13 13 12 12 12 11 10 10 10 10 10 10 10 10 10 10 10 10 10 11 10 10 9 9 9 9 9 10 11 9 9 9 8 8 8 8 8 8
14 15 15 14 14 14 14 13 13 13 12 11 11 11 12 12 12 12 12 12 12 12 12 13 13 12 12 12 12 12 11 12 10 11 11 10 10 9 10 9 9 8 8
14 15 15 15 15 15 15 14 14 14 13 13 12 13 13 13 14 14 13 13 12 13 13 13 14 14 14 13 13 13 12 12 11 11 12 12 11 10 10 11 11 10 10
16 16 16 15 15 15 15 15 15 15 15 14 14 14 14 14 14 15 15 15 15 15 14 14 15 15 14 14 13 13 13 13 13 13 13 12 12 12 13 12 13 12 11
17 17 16 16 16 16 16 16 16 16 16 15 15 15 15 15 14 15 15 15 15 15 15 14 14 14 14 14 13 13 13 13 14 13 14 14 14 14 13 13 13 13 14
17 17 17 17 17 17 17 17 17 16 16 16 16 16 16 16 15 15 15 15 15 15 15 15 15 16 14 14 14 14 14 14 14 14 15 15 15 14 14 14 14 13 14
19 19 18 18 18 18 18 18 18 17 17 17 17 16 17 16 15 15 15 15 15 16 16 16 16 16 14 14 15 15 15 15 15 15 14 15 15 14 14 14 14 13 12
19 20 19 18 19 18 19 18 18 18 18 17 17 18 18 17 15 15 16 15 16 16 16 16 16 15 14 14 15 16 16 15 14 13 14 14 13 13 13 14 15 15 16
21 21 20 19 19 20 20 19 19 18 19 18 18 18 18 18 16 15 15 15 16 16 15 16 15 14 13 13 14 15 16 15 14 15 15 14 14 14 14 14 15 17 17
21 21 21 20 20 20 20 19 19 19 19 19 19 18 18 18 17 15 14 15 15 15 15 16 15 13 13 14 14 15 15 14 15 16 16 16 16 15 15 15 15 16 18
21 22 21 20 19 19 19 19 19 19 19 19 19 19 18 18 17 16 15 14 14 15 15 15 14 13 14 14 15 14 14 16 17 17 17 17 17 16 16 16 16 16 16
21 22 21 21 20 20 20 20 20 20 19 19 19 19 18 17 17 16 15 14 14 15 14 14 14 14 15 16 16 16 16 17 17 17 17 17 16 16 16 16 16 16 16
22 22 22 21 21 20 19 19 19 19 19 18 18 18 17 17 17 16 14 14 14 14 14 15 16 16 17 17 17 16 16 16 17 17 17 16 16 17 17 16 17 17 18
21 21 20 20 20 20 20 20 19 19 18 18 17 17 17 17 16 15 14 15 14 14 17 17 17 18 18 17 16 16 16 16 17 16 17 17 17 17 17 16 17 17 19
20 20 20 20 20 20 20 20 20 19 18 17 17 17 17 16 16 15 15 15 15 14 17 18 18 18 18 18 17 17 17 17 16 17 17 17 17 17 17 17 17 18 19
21 22 22 22 21 21 21 21 22 21 20 20 19 18 18 17 16 16 16 15 14 15 19 19 19 19 19 18 18 18 18 17 18 18 17 17 17 17 17 17 17 18 18
24 25 22 22 22 22 22 22 23 23 23 22 21 20 19 18 17 16 15 15 18 19 20 21 21 20 20 19 19 19 18 18 18 18 17 17 17 17 18 18 18 19 19
24 23 23 23 23 24 23 23 23 23 23 24 23 22 21 20 18 17 17 20 21 21 21 21 21 21 20 20 20 19 19 19 19 19 19 18 17 18 18 18 18 19 20
25 25 25 23 24 24 23 24 24 24 23 23 22 21 22 22 20 19 20 21 22 22 22 22 22 22 21 21 21 20 20 19 18 18 17 17 17 17 17 18 18 19 19
24 24 25 24 24 24 24 24 23 23 23 22 22 21 19 19 19 20 21 22 22 23 23 23 22 22 22 21 21 20 20 19 18 18 17 17 17 17 17 17 17 18 18
24 24 24 25 24 24 24 23 23 23 22 23 22 21 19 21 21 22 22 22 22 23 23 23 23 22 22 21 21 21 20 20 19 18 18 17 17 17 17 17 17 18 18
24 24 24 24 24 24 24 23 23 23 22 22 22 22 22 22 22 23 23 22 22 23 23 23 23 23 22 22 21 20 21 20 19 18 19 19 18 17 17 18 18 19 19
23 23 23 22 22 23 23 22 22 23 24 22 22 22 22 22 22 22 23 22 23 23 23 23 24 24 23 23 21 20 20 20 19 19 19 19 19 18 18 18 18 18 18
23 23 23 22 22 22 22 22 22 22 21 21 21 21 21 22 22 22 22 23 24 24 24 24 24 24 24 24 23 22 21 21 21 21 21 20 20 19 18 18 17 17 17
23 23 23 23 23 23 23 23 22 21 21 21 21 21 21 21 22 22 22 23 24 24 24 24 24 24 24 23 23 21 21 19 19 18 17 16 15 14 14 13 13 13 14